Weather in Kamyshnoye

Russia / Kurgan Oblast     54°49′13″N   62°17′50″E
temp.,
°C
wind,
m/s
gust,
m/s
humid.,
%
clouds,
%
prec.,
mm/h
press.,
hPa
HPBL,
m
25 january, mon
mon2523:00−13s489599 0.9 1030282
02:00−11ssw349699 0.3 1028101
05:00−9wsw239399 0.3 102835
08:00−7wnw129799 0.1 102921
11:00−4wsw009699 0.4 103039
14:000sw3710094 0.2 1030273
17:00−2wsw349092 0.2 103148
20:00−4w458856 0.0 103284
26 january, tue
tue2623:00−6w448768 0.0 103267
02:00−7sw458847 0.0 103275
05:00−8wsw349128 0.0 103259
08:00−7w348631 0.0 103270
11:00−7wsw468847 0.0 1032103
14:00−5sw458994 0.0 1031135
17:00−6sw458976 0.0 103082
20:00−6wsw459173 0.0 103178
27 january, wed
wed2723:00−6sw478986 0.0 103093
02:00−4wsw4989100 0.0 1030154
05:00−5wsw4787100 0.0 1030142
08:00−5wsw478599 0.0 1030117
11:00−5wsw468688 0.0 1031115
14:00−3sw478927 0.0 1031158
17:00−5sw349153 0.0 103067
20:00−6sw349097 0.0 103154
28 january, thu
thu2823:00−7sw459076 0.0 103081
02:00−7ssw589073 0.0 1030141
05:00−6sw6129069 0.0 1029247
08:00−6sw6129195 0.0 1028276
11:00−6sw6138997 0.0 1027300
14:00−5sw61287100 0.0 1026358
17:00−5sw61385100 0.0 1026288
20:00−6sw61285100 0.0 1026245
29 january, fri
fri2923:00−8sw4986100 0.0 1026155
02:00−9ssw4886100 0.0 1026127
05:00−10ssw5884100 0.0 1025143
08:00−11ssw51085100 0.0 1026160
11:00−10ssw51084100 0.0 1025245
14:00−9ssw61086100 0.0 1025263
17:00−11s51089100 0.0 1024213
20:00−12s4990100 0.0 1023143